{"data":{"norad_id":68335,"epoch":"2026-05-24T20:09:07.647840Z","epoch_age_seconds":92860,"freshness":"FRESH","line1":"1 68335U 26059Q   26144.83967185  .00047462  00000+0  85562-3 0  9992","line2":"2 68335  53.1590 350.3482 0001084  88.9576 271.1557 15.49329951  9893","mean_motion":15.49329951,"eccentricity":0.0001084,"inclination_deg":53.159,"raan_deg":350.3482,"arg_perigee_deg":88.9576,"mean_anomaly_deg":271.1557,"bstar":0.00085562,"rev_number":989,"period_min":92.943404280706,"perigee_km":417.94823219523,"apogee_km":419.4217832065,"semimajor_km":6796.8220077009,"source":"CELESTRAK","updated_at":"2026-05-25T13:38:21.924520Z"}}